• In Belgium
  • List of Countries
  • For 7 days
  • Water Temperature
  • Satellite Maps
  • Weather Map
  • Weather Widgets
  • user-avatar
    Login

    Hourly Weather Kozani

    Today, 21 June, Thursday

    Time Temperature Precipitation Wind Pressure Humidity
    00:00 +19°C° 0.1 mm 1 mps 706 mmHg 67%
    01:00 +19°C° 0.1 mm 1 mps 706 mmHg 68%
    02:00 +18°C° 0.1 mm 1 mps 706 mmHg 70%
    03:00 +18°C° 0.1 mm 1 mps 706 mmHg 71%
    04:00 +18°C° 0.1 mm 1 mps 705 mmHg 72%
    05:00 +19°C° 0 mm 1 mps 706 mmHg 68%
    06:00 +21°C° 0 mm 1 mps 706 mmHg 64%
    07:00 +23°C° 0 mm 1 mps 706 mmHg 60%
    08:00 +24°C° 0.2 mm 1 mps 706 mmHg 56%
    09:00 +25°C° 0.2 mm 1 mps 706 mmHg 52%
    10:00 +26°C° 0.2 mm 1 mps 706 mmHg 47%
    11:00 +27°C° 0.1 mm 1 mps 706 mmHg 46%
    12:00 +27°C° 0.1 mm 1 mps 706 mmHg 44%
    13:00 +28°C° 0.1 mm 1 mps 706 mmHg 43%
    14:00 +27°C° 0.2 mm 1 mps 705 mmHg 44%
    15:00 +27°C° 0.2 mm 1 mps 705 mmHg 45%
    16:00 +27°C° 0.2 mm 1 mps 705 mmHg 47%
    17:00 +25°C° 0.2 mm 1 mps 704 mmHg 52%
    18:00 +24°C° 0.2 mm 1 mps 704 mmHg 56%
    19:00 +22°C° 0.2 mm 1 mps 704 mmHg 61%
    20:00 +21°C° 0.1 mm 1 mps 704 mmHg 64%
    21:00 +21°C° 0.1 mm 1 mps 704 mmHg 66%
    22:00 +20°C° 0.1 mm 1 mps 704 mmHg 68%
    23:00 +19°C° 0 mm 1 mps 704 mmHg 71%

    Tomorrow, 22 June, Friday

    Time Temperature Precipitation Wind Pressure Humidity
    00:00 +18°C° 0 mm 2 mps 704 mmHg 73%
    01:00 +17°C° 0 mm 2 mps 703 mmHg 76%
    02:00 +17°C° 0 mm 2 mps 703 mmHg 77%
    03:00 +17°C° 0 mm 2 mps 703 mmHg 79%
    04:00 +16°C° 0 mm 2 mps 703 mmHg 80%
    05:00 +18°C° 0 mm 2 mps 703 mmHg 74%
    06:00 +20°C° 0 mm 2 mps 703 mmHg 69%
    07:00 +23°C° 0 mm 1 mps 703 mmHg 63%
    08:00 +24°C° 0.1 mm 2 mps 703 mmHg 58%
    09:00 +26°C° 0.1 mm 2 mps 704 mmHg 52%
    10:00 +27°C° 0.1 mm 2 mps 704 mmHg 47%
    11:00 +28°C° 0.2 mm 2 mps 703 mmHg 46%
    12:00 +28°C° 0.2 mm 2 mps 703 mmHg 45%
    13:00 +29°C° 0.2 mm 2 mps 703 mmHg 44%
    14:00 +29°C° 0.2 mm 3 mps 703 mmHg 47%
    15:00 +28°C° 0.2 mm 3 mps 702 mmHg 49%
    16:00 +28°C° 0.2 mm 3 mps 702 mmHg 51%
    17:00 +26°C° 0.4 mm 3 mps 702 mmHg 58%
    18:00 +24°C° 0.4 mm 2 mps 702 mmHg 64%
    19:00 +23°C° 0.4 mm 2 mps 702 mmHg 71%
    20:00 +21°C° 0.8 mm 2 mps 702 mmHg 74%
    21:00 +20°C° 0.8 mm 2 mps 703 mmHg 78%
    22:00 +19°C° 0.8 mm 2 mps 703 mmHg 81%
    23:00 +18°C° 0.5 mm 2 mps 703 mmHg 83%

    Day after tomorrow, 23 June, Saturday

    Time Temperature Precipitation Wind Pressure Humidity
    00:00 +18°C° 0.5 mm 2 mps 703 mmHg 85%
    01:00 +17°C° 0.5 mm 2 mps 703 mmHg 86%
    02:00 +16°C° 0.2 mm 2 mps 703 mmHg 87%
    03:00 +16°C° 0.2 mm 2 mps 703 mmHg 87%
    04:00 +15°C° 0.2 mm 2 mps 703 mmHg 87%
    05:00 +16°C° 0.1 mm 2 mps 703 mmHg 81%
    06:00 +18°C° 0.1 mm 2 mps 703 mmHg 74%
    07:00 +19°C° 0.1 mm 3 mps 704 mmHg 67%
    08:00 +20°C° 0 mm 3 mps 704 mmHg 62%
    09:00 +22°C° 0 mm 3 mps 704 mmHg 56%
    10:00 +24°C° 0 mm 3 mps 705 mmHg 50%
    11:00 +25°C° 0.1 mm 3 mps 705 mmHg 49%
    12:00 +25°C° 0.1 mm 3 mps 704 mmHg 48%
    13:00 +26°C° 0.1 mm 3 mps 704 mmHg 47%
    14:00 +25°C° 0.2 mm 2 mps 704 mmHg 51%
    15:00 +24°C° 0.2 mm 2 mps 704 mmHg 56%
    16:00 +23°C° 0.2 mm 2 mps 704 mmHg 60%
    17:00 +20°C° 0.7 mm 2 mps 704 mmHg 67%
    18:00 +19°C° 0.7 mm 2 mps 704 mmHg 74%
    19:00 +17°C° 0.7 mm 2 mps 704 mmHg 81%
    20:00 +18°C° 0.1 mm 1 mps 704 mmHg 82%
    21:00 +16°C° 0.1 mm 1 mps 704 mmHg 83%
    22:00 +16°C° 0.1 mm 1 mps 705 mmHg 84%
    23:00 +15°C° 0 mm 1 mps 705 mmHg 84%

    24 June, Sunday

    Time Temperature Precipitation Wind Pressure Humidity
    00:00 +15°C° 0 mm 1 mps 704 mmHg 84%
    01:00 +15°C° 0 mm 1 mps 704 mmHg 84%
    02:00 +15°C° 0 mm 1 mps 704 mmHg 83%
    03:00 +15°C° 0 mm 1 mps 704 mmHg 83%
    04:00 +15°C° 0 mm 1 mps 704 mmHg 83%
    05:00 +15°C° 0 mm 1 mps 704 mmHg 81%
    06:00 +16°C° 0 mm 1 mps 704 mmHg 79%
    07:00 +16°C° 0 mm 2 mps 705 mmHg 77%
    08:00 +17°C° 0.1 mm 2 mps 705 mmHg 75%
    09:00 +17°C° 0.1 mm 2 mps 705 mmHg 72%
    10:00 +18°C° 0.1 mm 2 mps 705 mmHg 70%
    11:00 +19°C° 0.1 mm 2 mps 705 mmHg 69%
    12:00 +19°C° 0.1 mm 2 mps 705 mmHg 68%
    13:00 +20°C° 0.1 mm 2 mps 705 mmHg 68%
    14:00 +20°C° 0.1 mm 2 mps 705 mmHg 67%
    15:00 +21°C° 0.1 mm 2 mps 705 mmHg 67%
    16:00 +21°C° 0.1 mm 2 mps 705 mmHg 66%
    17:00 +20°C° 0.1 mm 2 mps 705 mmHg 71%
    18:00 +19°C° 0.1 mm 2 mps 704 mmHg 76%
    19:00 +18°C° 0.1 mm 1 mps 704 mmHg 81%
    20:00 +18°C° 0.1 mm 1 mps 705 mmHg 83%
    21:00 +18°C° 0.1 mm 1 mps 705 mmHg 84%
    22:00 +16°C° 0.1 mm 1 mps 705 mmHg 86%
    23:00 +16°C° 0.1 mm 1 mps 705 mmHg 86%

    25 June, Monday

    Time Temperature Precipitation Wind Pressure Humidity
    00:00 +16°C° 0.1 mm 1 mps 704 mmHg 86%
    01:00 +16°C° 0.1 mm 1 mps 704 mmHg 86%
    02:00 +16°C° 0.1 mm 1 mps 704 mmHg 86%
    03:00 +16°C° 0.1 mm 1 mps 704 mmHg 86%
    04:00 +15°C° 0.1 mm 1 mps 704 mmHg 86%
    05:00 +16°C° 0.2 mm 1 mps 704 mmHg 84%
    06:00 +18°C° 0.2 mm 1 mps 704 mmHg 81%
    07:00 +18°C° 0.2 mm 1 mps 704 mmHg 79%
    08:00 +18°C° 0.4 mm 2 mps 704 mmHg 78%
    09:00 +18°C° 0.4 mm 2 mps 704 mmHg 78%
    10:00 +18°C° 0.4 mm 2 mps 704 mmHg 78%
    11:00 +19°C° 0.4 mm 2 mps 704 mmHg 76%
    12:00 +19°C° 0.4 mm 2 mps 704 mmHg 74%
    13:00 +20°C° 0.4 mm 2 mps 704 mmHg 72%
    14:00 +20°C° 0.6 mm 2 mps 704 mmHg 72%
    15:00 +20°C° 0.6 mm 2 mps 704 mmHg 71%
    16:00 +20°C° 0.6 mm 2 mps 704 mmHg 71%
    17:00 +19°C° 0.8 mm 2 mps 703 mmHg 75%
    18:00 +19°C° 0.8 mm 1 mps 703 mmHg 79%
    19:00 +18°C° 0.8 mm 1 mps 703 mmHg 83%
    20:00 +16°C° 1 mm 1 mps 703 mmHg 86%
    21:00 +16°C° 1 mm 1 mps 703 mmHg 88%
    22:00 +16°C° 1 mm 1 mps 703 mmHg 90%
    23:00 +16°C° 1.9 mm 1 mps 703 mmHg 91%

    26 June, Tuesday

    Time Temperature Precipitation Wind Pressure Humidity
    00:00 +15°C° 1.9 mm 1 mps 702 mmHg 92%
    01:00 +15°C° 1.9 mm 2 mps 702 mmHg 93%
    02:00 +15°C° 1.9 mm 2 mps 702 mmHg 93%
    03:00 +15°C° 1.9 mm 2 mps 702 mmHg 94%
    04:00 +15°C° 1.9 mm 2 mps 701 mmHg 94%
    05:00 +15°C° 2.1 mm 2 mps 701 mmHg 93%
    06:00 +16°C° 2.1 mm 2 mps 701 mmHg 93%
    07:00 +16°C° 2.1 mm 3 mps 701 mmHg 92%
    08:00 +16°C° 2.3 mm 2 mps 701 mmHg 90%
    09:00 +16°C° 2.3 mm 2 mps 702 mmHg 88%
    10:00 +17°C° 2.3 mm 2 mps 702 mmHg 86%
    11:00 +17°C° 4.6 mm 2 mps 701 mmHg 86%
    12:00 +17°C° 4.6 mm 2 mps 701 mmHg 86%
    13:00 +17°C° 4.6 mm 2 mps 701 mmHg 86%
    14:00 +17°C° 7.7 mm 2 mps 701 mmHg 88%
    15:00 +17°C° 7.7 mm 2 mps 701 mmHg 89%
    16:00 +17°C° 7.7 mm 2 mps 701 mmHg 91%
    17:00 +17°C° 5.1 mm 2 mps 701 mmHg 92%
    18:00 +16°C° 5.1 mm 2 mps 702 mmHg 93%
    19:00 +16°C° 5.1 mm 2 mps 702 mmHg 94%
    20:00 +16°C° 2.2 mm 2 mps 702 mmHg 95%
    21:00 +16°C° 2.2 mm 2 mps 702 mmHg 95%
    22:00 +16°C° 2.2 mm 2 mps 703 mmHg 95%
    23:00 +16°C° 1.2 mm 2 mps 703 mmHg 95%
    Show more